მოწმენდილი ცა დაბალი და ალაგ-ალაგ მიმოფანტული ღრუბლებით
მოწმენდილი, რამდენიმე ფრთა-ღრუბლით
მოწმენდილი ცა დაბალი და ალაგ-ალაგ მიმოფანტული ღრუბლებით
ნაწილობრივ მოღრუბლული ალაგ-ალაგ მიმოფანტული ღრუბლებით
ნაწილობრივ მოღრუბლული ალაგ-ალაგ მიმოფანტული ღრუბლებით
ნაწილობრივ მოღრუბლული ალაგ-ალაგ მიმოფანტული ღრუბლებით
ნაწილობრივ მოღრუბლული ალაგ-ალაგ მიმოფანტული ღრუბლებით
მოწმენდილი ცა დაბალი და ალაგ-ალაგ მიმოფანტული ღრუბლებით
მოწმენდილი ცა დაბალი და ალაგ-ალაგ მიმოფანტული ღრუბლებით
(°C)
18°
18°
20°
20°
22°
22°
23°
23°
24°
24°
24°
24°
25°
25°
25°
25°
26°
26°
(°C)
19°
21°
22°
24°
25°
24°
25°
25°
25°
ასა
სა
სსა
სსა
სა
დსდ
სსდ
დას.
დას.
(km/h)
6-11
6-10
5-10
5-12
5-16
5-14
5-15
5-12
5-13
(მმ)
0
0
0
0
0
0
0
0
0
(%)
0
0
0
0
0
0
0
0
0

მზის სიმაღლე

/ 35.4°
sun-icon
UV 4
05:20
21:36
მზარდი მთვარე (142°)
19:54
01:29

METAR Bordenau (ETNW)-თვის

დრო პირობები ტემპერატურა/
ნამი
ქარი ხილვადობა ამინდი ღრუბლები წნევა ცვლილება დაუმუშავებელი
VFR 17°C / 14°C 100º 2kt 9700m - Scattered Clouds 33000ft 1023 - ETNW 180620Z 10002KT 9999 SCT330 17/14 Q1023 BLU+BLU+
VFR 15°C / 14°C 120º 2kt 9700m - Scattered Clouds 34000ft 1023 - ETNW 180520Z 12002KT 9999 SCT340 15/14 Q1023 BLU+BLU+
VFR 13°C / 13°C 100º 1kt 9700m - Scattered Clouds 35000ft 1023 - ETNW 180420Z 10001KT 9999 SCT350 13/13 Q1023 BLU+BLU+
VFR 13°C / 13°C 110º 2kt 9700m shallow Fog Scattered Clouds 36000ft 1023 - ETNW 180320Z 11002KT 9999 MIFG SCT360 13/13 Q1023 BLU+
VFR 13°C / 13°C 190º 4kt 9700m shallow Fog Few Clouds 36000ft 1023 - ETNW 180220Z 19004KT 9999 MIFG FEW360 13/13 Q1023 BLU+
VFR 14°C / 13°C 190º 3kt 9700m - Few Clouds 36000ft 1023 - ETNW 180120Z 19003KT 9999 FEW360 14/13 Q1023 BLU+
VFR 14°C / 13°C 1kt 9700m - Few Clouds 36000ft 1023 - ETNW 180020Z VRB01KT 9999 FEW360 14/13 Q1023 BLU+
VFR 15°C / 14°C 300º 1kt 9700m - Few Clouds 36000ft 1023 - ETNW 172320Z 30001KT 9999 FEW360 15/14 Q1023 BLU+
VFR 16°C / 13°C 270º 2kt 9700m - Few Clouds 6300ft 1023 - ETNW 172220Z 27002KT 9999 FEW063 16/13 Q1023 BLU+
VFR 17°C / 14°C 260º 4kt 9700m - Few Clouds 6300ft 1022 - ETNW 172120Z 26004KT 9999 FEW063 17/14 Q1022 BLU+
VFR 18°C / 14°C 280º 3kt 9700m - Few Clouds 6300ft 1022 - ETNW 172020Z 28003KT 9999 FEW063 18/14 Q1022 BLU+
VFR 19°C / 14°C 300º 6kt 9700m - Few Clouds 3000ft 1022 - ETNW 171920Z 30006KT 9999 FEW030 19/14 Q1022 BLU+FCST CNL
VFR 20°C / 14°C 300º 7kt 9700m - Few Clouds 3000ft
Scattered Clouds 8000ft
1021 - ETNW 171820Z 30007KT 9999 FEW030 SCT080 20/14 Q1021 BLU+BLU+
VFR 21°C / 14°C 290º 9kt 9700m - Scattered Clouds 3000ft
Broken Clouds 7000ft
1021 - ETNW 171720Z 29009KT 9999 SCT030 BKN070 21/14 Q1021 BLU BLU
VFR 21°C / 14°C 290º 9kt 9700m - Scattered Clouds 3000ft
Broken Clouds 7000ft
1021 - ETNW 171620Z 29009KT 9999 SCT030 BKN070 21/14 Q1021 BLU BLU
VFR 21°C / 14°C 280º 12kt 9700m - Few Clouds 2800ft
Broken Clouds 8000ft
1020 - ETNW 171520Z 28012KT 9999 FEW028 BKN080 21/14 Q1020 BLU BLU
VFR 20°C / 14°C 280º 11kt 9700m - Few Clouds 2500ft
Broken Clouds 7000ft
1020 - ETNW 171420Z 28011KT 9999 FEW025 BKN070 20/14 Q1020 BLU BLU
VFR 20°C / 15°C 280º 13kt 9700m - Scattered Clouds 3100ft
Broken Clouds 5500ft
1020 - ETNW 171320Z 28013KT 9999 SCT031 BKN055 20/15 Q1020 BLU BLU
VFR 20°C / 15°C 280º 11kt 9700m - Few Clouds 3000ft
Broken Clouds 6000ft
1019 - ETNW 171220Z 28011KT 9999 FEW030 BKN060 20/15 Q1019 BLU BLU
VFR 20°C / 14°C 280º 12kt 9700m - Scattered Clouds 2500ft
Broken Clouds 4500ft
1019 - ETNW 171120Z 28012KT 9999 SCT025 BKN045 20/14 Q1019 BLU BLU
VFR 19°C / 14°C 260º 10kt 9700m - Scattered Clouds 2500ft
Broken Clouds 4000ft
1018 - ETNW 171020Z 26010KT 9999 SCT025 BKN040 19/14 Q1018 BLU BLU
VFR 19°C / 13°C 260º 10kt 9700m - Scattered Clouds 2000ft
Broken Clouds 4500ft
1018 - ETNW 170920Z 26010KT 9999 SCT020 BKN045 19/13 Q1018 BLU BLU
VFR 19°C / 13°C 260º 12kt 9700m - Scattered Clouds 2000ft
Broken Clouds 4500ft
1017 Temporary: WHT ETNW 170820Z 26012KT 9999 SCT020 BKN045 19/13 Q1017 BLU BLU TEMPO WHT
VFR 18°C / 14°C 260º 10kt 9700m - Scattered Clouds 2000ft
Broken Clouds 4500ft
1017 Temporary: WHT ETNW 170720Z 26010KT 9999 SCT020 BKN045 18/14 Q1017 BLU BLU TEMPO WHT

VFR

17°C / 14°C

[მეტი]
ქარი 100º 2kt
ხილვადობა 9700m
ამინდი -
ღრუბლები Scattered Clouds 33000ft
წნევა 1023
ცვლილება -
დაუმუშავებელი ETNW 180620Z 10002KT 9999 SCT330 17/14 Q1023 BLU+BLU+

VFR

15°C / 14°C

[მეტი]
ქარი 120º 2kt
ხილვადობა 9700m
ამინდი -
ღრუბლები Scattered Clouds 34000ft
წნევა 1023
ცვლილება -
დაუმუშავებელი ETNW 180520Z 12002KT 9999 SCT340 15/14 Q1023 BLU+BLU+

VFR

13°C / 13°C

[მეტი]
ქარი 100º 1kt
ხილვადობა 9700m
ამინდი -
ღრუბლები Scattered Clouds 35000ft
წნევა 1023
ცვლილება -
დაუმუშავებელი ETNW 180420Z 10001KT 9999 SCT350 13/13 Q1023 BLU+BLU+

VFR

13°C / 13°C

[მეტი]
ქარი 110º 2kt
ხილვადობა 9700m
ამინდი shallow Fog
ღრუბლები Scattered Clouds 36000ft
წნევა 1023
ცვლილება -
დაუმუშავებელი ETNW 180320Z 11002KT 9999 MIFG SCT360 13/13 Q1023 BLU+

VFR

13°C / 13°C

[მეტი]
ქარი 190º 4kt
ხილვადობა 9700m
ამინდი shallow Fog
ღრუბლები Few Clouds 36000ft
წნევა 1023
ცვლილება -
დაუმუშავებელი ETNW 180220Z 19004KT 9999 MIFG FEW360 13/13 Q1023 BLU+

VFR

14°C / 13°C

[მეტი]
ქარი 190º 3kt
ხილვადობა 9700m
ამინდი -
ღრუბლები Few Clouds 36000ft
წნევა 1023
ცვლილება -
დაუმუშავებელი ETNW 180120Z 19003KT 9999 FEW360 14/13 Q1023 BLU+

VFR

14°C / 13°C

[მეტი]
ქარი 1kt
ხილვადობა 9700m
ამინდი -
ღრუბლები Few Clouds 36000ft
წნევა 1023
ცვლილება -
დაუმუშავებელი ETNW 180020Z VRB01KT 9999 FEW360 14/13 Q1023 BLU+

VFR

15°C / 14°C

[მეტი]
ქარი 300º 1kt
ხილვადობა 9700m
ამინდი -
ღრუბლები Few Clouds 36000ft
წნევა 1023
ცვლილება -
დაუმუშავებელი ETNW 172320Z 30001KT 9999 FEW360 15/14 Q1023 BLU+

VFR

16°C / 13°C

[მეტი]
ქარი 270º 2kt
ხილვადობა 9700m
ამინდი -
ღრუბლები Few Clouds 6300ft
წნევა 1023
ცვლილება -
დაუმუშავებელი ETNW 172220Z 27002KT 9999 FEW063 16/13 Q1023 BLU+

VFR

17°C / 14°C

[მეტი]
ქარი 260º 4kt
ხილვადობა 9700m
ამინდი -
ღრუბლები Few Clouds 6300ft
წნევა 1022
ცვლილება -
დაუმუშავებელი ETNW 172120Z 26004KT 9999 FEW063 17/14 Q1022 BLU+

VFR

18°C / 14°C

[მეტი]
ქარი 280º 3kt
ხილვადობა 9700m
ამინდი -
ღრუბლები Few Clouds 6300ft
წნევა 1022
ცვლილება -
დაუმუშავებელი ETNW 172020Z 28003KT 9999 FEW063 18/14 Q1022 BLU+

VFR

19°C / 14°C

[მეტი]
ქარი 300º 6kt
ხილვადობა 9700m
ამინდი -
ღრუბლები Few Clouds 3000ft
წნევა 1022
ცვლილება -
დაუმუშავებელი ETNW 171920Z 30006KT 9999 FEW030 19/14 Q1022 BLU+FCST CNL

VFR

20°C / 14°C

[მეტი]
ქარი 300º 7kt
ხილვადობა 9700m
ამინდი -
ღრუბლები Few Clouds 3000ft
Scattered Clouds 8000ft
წნევა 1021
ცვლილება -
დაუმუშავებელი ETNW 171820Z 30007KT 9999 FEW030 SCT080 20/14 Q1021 BLU+BLU+

VFR

21°C / 14°C

[მეტი]
ქარი 290º 9kt
ხილვადობა 9700m
ამინდი -
ღრუბლები Scattered Clouds 3000ft
Broken Clouds 7000ft
წნევა 1021
ცვლილება -
დაუმუშავებელი ETNW 171720Z 29009KT 9999 SCT030 BKN070 21/14 Q1021 BLU BLU

VFR

21°C / 14°C

[მეტი]
ქარი 290º 9kt
ხილვადობა 9700m
ამინდი -
ღრუბლები Scattered Clouds 3000ft
Broken Clouds 7000ft
წნევა 1021
ცვლილება -
დაუმუშავებელი ETNW 171620Z 29009KT 9999 SCT030 BKN070 21/14 Q1021 BLU BLU

VFR

21°C / 14°C

[მეტი]
ქარი 280º 12kt
ხილვადობა 9700m
ამინდი -
ღრუბლები Few Clouds 2800ft
Broken Clouds 8000ft
წნევა 1020
ცვლილება -
დაუმუშავებელი ETNW 171520Z 28012KT 9999 FEW028 BKN080 21/14 Q1020 BLU BLU

VFR

20°C / 14°C

[მეტი]
ქარი 280º 11kt
ხილვადობა 9700m
ამინდი -
ღრუბლები Few Clouds 2500ft
Broken Clouds 7000ft
წნევა 1020
ცვლილება -
დაუმუშავებელი ETNW 171420Z 28011KT 9999 FEW025 BKN070 20/14 Q1020 BLU BLU

VFR

20°C / 15°C

[მეტი]
ქარი 280º 13kt
ხილვადობა 9700m
ამინდი -
ღრუბლები Scattered Clouds 3100ft
Broken Clouds 5500ft
წნევა 1020
ცვლილება -
დაუმუშავებელი ETNW 171320Z 28013KT 9999 SCT031 BKN055 20/15 Q1020 BLU BLU

VFR

20°C / 15°C

[მეტი]
ქარი 280º 11kt
ხილვადობა 9700m
ამინდი -
ღრუბლები Few Clouds 3000ft
Broken Clouds 6000ft
წნევა 1019
ცვლილება -
დაუმუშავებელი ETNW 171220Z 28011KT 9999 FEW030 BKN060 20/15 Q1019 BLU BLU

VFR

20°C / 14°C

[მეტი]
ქარი 280º 12kt
ხილვადობა 9700m
ამინდი -
ღრუბლები Scattered Clouds 2500ft
Broken Clouds 4500ft
წნევა 1019
ცვლილება -
დაუმუშავებელი ETNW 171120Z 28012KT 9999 SCT025 BKN045 20/14 Q1019 BLU BLU

VFR

19°C / 14°C

[მეტი]
ქარი 260º 10kt
ხილვადობა 9700m
ამინდი -
ღრუბლები Scattered Clouds 2500ft
Broken Clouds 4000ft
წნევა 1018
ცვლილება -
დაუმუშავებელი ETNW 171020Z 26010KT 9999 SCT025 BKN040 19/14 Q1018 BLU BLU

VFR

19°C / 13°C

[მეტი]
ქარი 260º 10kt
ხილვადობა 9700m
ამინდი -
ღრუბლები Scattered Clouds 2000ft
Broken Clouds 4500ft
წნევა 1018
ცვლილება -
დაუმუშავებელი ETNW 170920Z 26010KT 9999 SCT020 BKN045 19/13 Q1018 BLU BLU

VFR

19°C / 13°C

[მეტი]
ქარი 260º 12kt
ხილვადობა 9700m
ამინდი -
ღრუბლები Scattered Clouds 2000ft
Broken Clouds 4500ft
წნევა 1017
ცვლილება Temporary: WHT
დაუმუშავებელი ETNW 170820Z 26012KT 9999 SCT020 BKN045 19/13 Q1017 BLU BLU TEMPO WHT

VFR

18°C / 14°C

[მეტი]
ქარი 260º 10kt
ხილვადობა 9700m
ამინდი -
ღრუბლები Scattered Clouds 2000ft
Broken Clouds 4500ft
წნევა 1017
ცვლილება Temporary: WHT
დაუმუშავებელი ETNW 170720Z 26010KT 9999 SCT020 BKN045 18/14 Q1017 BLU BLU TEMPO WHT

TAF Bordenau (ETNW)-თვის

From till


From till Wind 3kt. Visibility 9700m. Few Clouds 6000ft. Scattered Clouds 30000ft.

დაუმუშავებელი: TAF ETNW 180408Z 1805/1905 VRB03KT 9999 NSW FEW060 SCT300

rainNOW: წვიმის მიმდინარე პროგნოზი Bordenau-თვის და გარშემო არეალისთვის (25 კმ რადიუსით)

0.0 მმ
0.0 მმ
0.0 მმ
0.0 მმ
0.0 მმ
0.0 მმ
0.0 მმ
0.0 მმ
0.0 მმ
0.0 მმ
0.0 მმ
0.0 მმ

რადარის და ნალექების მაჩვენებელი Bordenau -თვის

გაწურეთ
Მსუბუქი
ზომიერი
Მძიმე
Ძალიან მძიმე
სეტყვა

მდებარეობის მარკერი მოთავსებულია Bordenau -ზე. ეს ანიმაცია აჩვენებს ნალექის რადარს არჩეული დროის დიაპაზონისთვის, ასევე 2h პროგნოზს. ნარინჯისფერი ჯვრები მიუთითებს ელვაზე. nowcast.de-ის მიერ მოწოდებული მონაცემები (ხელმისაწვდომია აშშ-ში, ევროპაში, ავსტრალიაში). წვიმა ან მსუბუქი თოვლი შეიძლება იყოს უხილავი რადარისთვის. ნალექის ინტენსივობა არის ფერადი კოდირებული, დაწყებული ფირუზისფერიდან წითამდე.

მიმდინარე სატელიტისა და წვიმის სურათები Bordenau-თვის, გერმანია

ლოკაციის მარკერი დაყენებყლია Bordenauზე. [მეტი]

რეალურ დროში სატელიტური სურათი აერთიანებს ხილულ სინათლეს დღისით ღამის განმავლობაში ინფრაწითელ გამოსხივებასთან ერთად. ღამით, სურათი არ არის მუქი, რადგან ინფრაწითელ გამოსხივებას შეუძლია ტემპერატურის განსხვავებების დადგენა. სამწუხაროდ, დაბალი ღრუბლები და ნისლი ძნელია განასხვავონ მიწის ტემპერატურისგან და, შესაბამისად, ისინი შეიძლება თითქმის არ ჩანდეს ღამით. Meteosat სატელიტური გამოსახულება ევროპისთვის ახლდება რეალურ დროში ყოველ 5 წუთში. GOES-16/GOES-17 (ჩრდილოეთი და სამხრეთ ამერიკა) და ჰიმავარი (აზია) გამოსახულებები ახლდება ყოველ 10 წუთში.

ნალექი შეფასებულია რადარებიდან და თანამგზავრებიდან. სატელიტების ნალექის შეფასებები ღამით ნაკლებად ზუსტია, ვიდრე დღისით.

© 2024 meteoblue, NOAA Satellites GOES-16 and EUMETSAT. ელვის შესახებ მონაცემები მოწოდებული nowcast მიერ.

თავში დაბრუნება
×
გამარჯობა,
როგორც ჩანს, რეკლამის ბლოკერს იყენებთ.

რეკლამა აუცილებელია ჩვენი უფასო ვებსაიტის უნიკალური დეტალებითა და სიზუსტით შესანარჩუნებლად.

გთხოვთ თეთრი სია www.meteoblue.com თქვენს რეკლამის ბლოკერზე ან განიხილოთ ჩვენი ერთ-ერთი პროდუქტის შეძენა:

უკვე გაქვთ გამოწერა?
შემდეგ გთხოვთ შედით სისტემაში.